TimeEST,TemperatureF,Dew PointF,Humidity,Sea Level PressureIn,VisibilityMPH,Wind Direction,Wind SpeedMPH,Gust SpeedMPH,PrecipitationIn,Events,Conditions,WindDirDegrees,DateUTC
12:19 AM,42.8,33.8,70,29.59,10.0,Variable,6.9,-,0.00,,Overcast,0,2013-02-27 05:19:00
12:53 AM,39.0,35.1,86,29.61,6.0,WSW,12.7,26.5,0.00,Rain,Light Rain,240,2013-02-27 05:53:00
1:28 AM,37.4,35.6,93,29.62,10.0,Variable,6.9,17.3,0.01,Rain,Light Rain,0,2013-02-27 06:28:00
1:53 AM,37.9,35.1,89,29.63,10.0,SW,9.2,23.0,0.01,Rain,Light Rain,230,2013-02-27 06:53:00
2:01 AM,37.4,33.8,87,29.63,10.0,Variable,5.8,20.7,0.00,Rain,Light Rain,0,2013-02-27 07:01:00
2:53 AM,37.9,34.0,86,29.64,10.0,Variable,6.9,17.3,0.00,,Overcast,0,2013-02-27 07:53:00
3:53 AM,37.0,34.0,89,29.64,10.0,Variable,6.9,-,0.01,,Overcast,0,2013-02-27 08:53:00
4:53 AM,37.0,34.0,89,29.67,10.0,Variable,4.6,-,0.00,,Overcast,0,2013-02-27 09:53:00
5:53 AM,37.9,33.1,83,29.68,10.0,Variable,4.6,-,N/A,,Overcast,0,2013-02-27 10:53:00
6:53 AM,37.9,32.0,79,29.70,10.0,Variable,4.6,18.4,N/A,,Overcast,0,2013-02-27 11:53:00
7:53 AM,36.0,32.0,86,29.74,7.0,Variable,4.6,-,0.00,Rain,Light Rain,0,2013-02-27 12:53:00
8:00 AM,35.6,33.8,93,29.73,8.0,SW,8.1,-,0.00,Rain,Light Rain,230,2013-02-27 13:00:00
8:25 AM,35.6,33.8,93,29.74,2.5,Variable,4.6,-,0.01,Rain,Light Rain,0,2013-02-27 13:25:00
8:36 AM,35.6,33.8,93,29.74,5.0,Variable,3.5,-,0.01,Rain,Light Rain,0,2013-02-27 13:36:00
8:53 AM,36.0,34.0,93,29.76,9.0,Variable,4.6,-,0.01,,Overcast,0,2013-02-27 13:53:00
9:07 AM,35.6,33.8,93,29.75,7.0,Calm,Calm,-,0.00,Rain,Light Rain,0,2013-02-27 14:07:00
9:53 AM,36.0,34.0,93,29.78,7.0,Variable,5.8,-,0.00,Rain,Light Rain,0,2013-02-27 14:53:00
10:20 AM,37.4,33.8,87,29.76,10.0,Variable,5.8,-,0.00,,Overcast,0,2013-02-27 15:20:00
10:53 AM,37.9,34.0,86,29.77,10.0,Variable,4.6,-,0.00,,Overcast,0,2013-02-27 15:53:00
11:26 AM,37.4,33.8,87,29.76,8.0,Variable,3.5,-,N/A,Rain,Light Rain,0,2013-02-27 16:26:00
11:53 AM,37.0,33.1,86,29.77,6.0,Variable,4.6,-,0.00,Rain,Light Rain,0,2013-02-27 16:53:00
12:39 PM,37.4,33.8,87,29.74,10.0,Variable,3.5,-,0.00,,Overcast,0,2013-02-27 17:39:00
12:53 PM,37.9,33.1,83,29.75,10.0,Variable,6.9,-,0.00,Rain,Light Rain,0,2013-02-27 17:53:00
1:53 PM,37.9,30.9,76,29.75,10.0,SW,9.2,18.4,0.00,,Overcast,230,2013-02-27 18:53:00
2:53 PM,37.9,32.0,79,29.73,10.0,Variable,6.9,-,N/A,,Overcast,0,2013-02-27 19:53:00
3:53 PM,37.9,30.0,73,29.74,10.0,Variable,6.9,20.7,N/A,,Overcast,0,2013-02-27 20:53:00
4:53 PM,37.9,30.9,76,29.76,10.0,Variable,3.5,-,N/A,,Overcast,0,2013-02-27 21:53:00
5:53 PM,35.1,30.9,85,29.78,3.0,SW,4.6,-,0.01,Rain,Rain,230,2013-02-27 22:53:00
6:25 PM,33.8,32.0,93,29.77,5.0,WSW,6.9,-,0.01,Snow,Light Snow,240,2013-02-27 23:25:00
6:53 PM,34.0,32.0,92,29.80,3.0,Variable,3.5,-,0.02,Snow,Light Snow,0,2013-02-27 23:53:00
7:21 PM,33.8,32.0,93,29.78,4.0,Variable,4.6,-,0.01,Snow,Light Snow,0,2013-02-28 00:21:00
7:53 PM,34.0,32.0,92,29.81,5.0,Variable,5.8,-,0.02,Snow,Light Snow,0,2013-02-28 00:53:00
8:01 PM,33.8,32.0,93,29.79,6.0,Variable,3.5,-,0.00,,Overcast,0,2013-02-28 01:01:00
8:53 PM,33.1,32.0,96,29.81,6.0,Variable,6.9,-,0.00,,Overcast,0,2013-02-28 01:53:00
9:37 PM,33.8,30.2,87,29.78,1.8,Calm,Calm,-,0.00,Snow,Light Snow,0,2013-02-28 02:37:00
9:42 PM,32.0,30.2,93,29.78,1.2,Variable,3.5,-,0.01,Snow,Light Snow,0,2013-02-28 02:42:00
9:50 PM,32.0,30.2,93,29.79,1.0,Variable,4.6,-,0.01,Snow,Light Snow,0,2013-02-28 02:50:00
9:53 PM,32.0,30.0,92,29.81,1.0,Variable,4.6,-,0.01,Snow,Light Snow,0,2013-02-28 02:53:00
10:03 PM,32.0,30.2,93,29.79,0.8,Variable,4.6,-,0.01,Snow,Light Snow,0,2013-02-28 03:03:00
10:11 PM,32.0,30.2,93,29.79,1.2,Variable,4.6,-,0.01,Snow,Light Snow,0,2013-02-28 03:11:00
10:15 PM,32.0,30.2,93,29.79,2.0,Variable,6.9,-,0.01,Snow,Light Snow,0,2013-02-28 03:15:00
10:28 PM,32.0,30.2,93,29.78,3.0,Variable,4.6,-,0.01,Snow,Light Snow,0,2013-02-28 03:28:00
10:53 PM,32.0,30.0,92,29.81,5.0,Variable,5.8,-,0.01,Snow,Light Snow,0,2013-02-28 03:53:00
11:00 PM,32.0,30.2,93,29.78,6.0,SW,3.5,-,0.00,,Overcast,230,2013-02-28 04:00:00
11:53 PM,32.0,30.9,96,29.79,3.0,Calm,Calm,-,0.00,Snow,Light Snow,0,2013-02-28 04:53:00
11:56 PM,32.0,30.2,93,29.76,2.0,Variable,3.5,-,0.00,Snow,Light Snow,0,2013-02-28 04:56:00